This demonstration page uses our WeatherBlox Daily Observations layout. Learn more.

Hourly Observations for April 4, 2020

Temp ( °F °C ) Dew Point ( °F °C ) Humidity (%) Winds ( mph kmh ) Pressure ( in mb ) Visibility ( mi km ) Precip ( " mm )
12:54 am 00:54 Cloudy 28 -2.2 21 -6.1 75 75 N 12 19 30.35 1028 10 16.0934 0 0
1:54 am 01:54 Cloudy 27 -2.8 20 -6.7 75 75 NNE 12 19 30.35 1028 10 16.0934 0 0
2:10 am 02:10 Cloudy 27 -2.8 20 -6.7 75 75 N 12 19 30.37 1029 10 16.0934 0 0
2:54 am 02:54 Cloudy 26 -3.3 20 -6.7 78 78 NNE 10 17 30.33 1027 10 16.0934 0 0
3:54 am 03:54 Cloudy 26 -3.3 20 -6.7 78 78 NE 9 15 30.33 1027 10 16.0934 0 0
4:54 am 04:54 Cloudy 26 -3.3 21 -6.1 81 81 N 10 17 30.32 1027 10 16.0934 0 0
5:54 am 05:54 Cloudy 26 -3.3 20 -6.7 78 78 NNE 3 6 30.32 1027 10 16.0934 0 0
6:54 am 06:54 Cloudy 26 -3.3 21 -6.1 81 81 N 7 11 30.33 1027 10 16.0934 0 0
7:54 am 07:54 Cloudy 26 -3.3 21 -6.1 81 81 NNE 9 15 30.32 1027 10 16.0934 0 0
8:11 am 08:11 Cloudy 26 -3.3 21 -6.1 81 81 NE 8 13 30.36 1028 10 16.0934 0 0
8:52 am 08:52 Cloudy 27 -3 21 -6 80 80 ENE 9 15 30.36 1028 10 16.0934 0 0
8:54 am 08:54 Cloudy 27 -2.8 21 -6.1 78 78 ENE 9 15 30.32 1027 10 16.0934 0 0
9:54 am 09:54 Cloudy 30 -1.1 23 -5 75 75 NNE 8 13 30.32 1027 10 16.0934 0 0
10:54 am 10:54 Cloudy 32 0 23 -5 69 69 ESE 3 6 30.31 1027 10 16.0934 0 0
11:06 am 11:06 Mostly Cloudy 34 1.1 24 -4.4 67 67 undefined N/A 30.32 1027 10 16.0934 0 0
11:20 am 11:20 Mostly Cloudy 34 1.1 24 -4.4 67 67 VRB 5 7 30.32 1027 10 16.0934 0 0
11:54 am 11:54 Cloudy 36 2.2 24 -4.4 62 62 NE 6 9 30.3 1026 10 16.0934 0 0
12:54 pm 12:54 Partly Cloudy 38 3.3 25 -3.9 60 60 SE 7 11 30.26 1025 9 14.48406 0 0
1:54 pm 13:54 Cloudy 43 6.1 27 -2.8 53 53 VRB 3 6 30.22 1024 10 16.0934 0 0
2:54 pm 14:54 Partly Cloudy 48 8.9 27 -2.8 44 44 VRB 5 7 30.19 1022 10 16.0934 0 0
3:54 pm 15:54 Cloudy 50 10 26 -3.3 39 39 E 3 6 30.15 1021 10 16.0934 0 0
4:54 pm 16:54 Sunny 51 10.6 25 -3.9 36 36 SSE 9 15 30.13 1020 10 16.0934 0 0
5:54 pm 17:54 Partly Cloudy 51 10.6 24 -4.4 35 35 ESE 9 15 30.11 1020 10 16.0934 0 0
6:54 pm 18:54 Cloudy 50 10 24 -4.4 36 36 ESE 10 17 30.12 1020 10 16.0934 0 0
7:54 pm 19:54 Partly Cloudy 47 8.3 24 -4.4 41 41 SE 13 20 30.12 1020 10 16.0934 0 0
8:54 pm 20:54 Clear 42 5.6 26 -3.3 53 53 SE 6 9 30.13 1020 10 16.0934 0 0
9:54 pm 21:54 Clear 41 5 26 -3.3 55 55 Calm 30.14 1021 10 16.0934 0 0
10:54 pm 22:54 Clear 36 2.2 26 -3.3 67 67 Calm 30.14 1021 10 16.0934 0 0
11:54 pm 23:54 Clear 35 1.7 27 -2.8 72 72 SSE 3 6 30.14 1021 10 16.0934 0 0

Powered by AerisWeather